,,PA_Meas_PMT16A,,PR_Meas_QMR101_102,,RH_Meas_QMH101,,SR_Meas_QMS101,,TA_Meas_QMH101,,GenWind,,GenWind,
time,status,PA,status,PR,status,RH,status,SR,status,TA,status,DirAvg,status,SpdAvg,
2013-06-29, 00:00:04,VALID,918.317,VALID,0,VALID,92.8608,VALID,0,VALID,20.4634,VALID,352,VALID,0,
2013-06-29, 00:01:04,VALID,918.301,VALID,0,VALID,93.0285,VALID,0,VALID,20.4439,VALID,344,VALID,0,
2013-06-29, 00:02:04,VALID,918.337,VALID,0,VALID,93.2191,VALID,0,VALID,20.4244,VALID,342,VALID,0,
2013-06-29, 00:03:04,VALID,918.315,VALID,0,VALID,93.2496,VALID,0,VALID,20.4049,VALID,355,VALID,0,
2013-06-29, 00:04:04,VALID,918.315,VALID,0,VALID,93.4173,VALID,0,VALID,20.4049,VALID,355,VALID,0,
2013-06-29, 00:05:04,VALID,918.31,VALID,0,VALID,93.4021,VALID,0,VALID,20.3854,VALID,355,VALID,0,
2013-06-29, 00:06:04,VALID,918.329,VALID,0,VALID,93.4936,VALID,0,VALID,20.3854,VALID,316,VALID,0,
2013-06-29, 00:07:04,VALID,918.337,VALID,0,VALID,93.5317,VALID,0,VALID,20.3854,VALID,319,VALID,0,
2013-06-29, 00:08:04,VALID,918.351,VALID,0,VALID,93.6689,VALID,0,VALID,20.4439,VALID,323,VALID,0,
2013-06-29, 00:09:04,VALID,918.353,VALID,0,VALID,93.707,VALID,0,VALID,20.4439,VALID,323,VALID,0,
2013-06-29, 00:10:04,VALID,918.331,VALID,0,VALID,93.7299,VALID,0,VALID,20.4829,VALID,323,VALID,0,
2013-06-29, 00:11:04,VALID,918.347,VALID,0,VALID,93.6842,VALID,0,VALID,20.5024,VALID,322,VALID,0,
2013-06-29, 00:12:04,VALID,918.329,VALID,0,VALID,93.6155,VALID,0,VALID,20.5219,VALID,323,VALID,0,
2013-06-29, 00:13:04,VALID,918.295,VALID,0,VALID,93.6003,VALID,0,VALID,20.5414,VALID,323,VALID,0,
2013-06-29, 00:14:04,VALID,918.315,VALID,0,VALID,93.6308,VALID,0,VALID,20.5399,VALID,322,VALID,0,
2013-06-29, 00:15:04,VALID,918.296,VALID,0,VALID,93.6537,VALID,0,VALID,20.5804,VALID,322,VALID,0,
2013-06-29, 00:16:04,VALID,918.295,VALID,0,VALID,93.6842,VALID,0,VALID,20.5999,VALID,322,VALID,0,
2013-06-29, 00:17:04,VALID,918.287,VALID,0,VALID,93.5698,VALID,0,VALID,20.5789,VALID,323,VALID,0,
2013-06-29, 00:18:04,VALID,918.299,VALID,0,VALID,93.5393,VALID,0,VALID,20.5609,VALID,323,VALID,0,
2013-06-29, 00:19:04,VALID,918.304,VALID,0,VALID,93.6537,VALID,0,VALID,20.5609,VALID,323,VALID,0,
2013-06-29, 00:20:04,VALID,918.294,VALID,0,VALID,93.7985,VALID,0,VALID,20.5609,VALID,323,VALID,0,
2013-06-29, 00:21:04,VALID,918.295,VALID,0,VALID,93.9357,VALID,0,VALID,20.5804,VALID,323,VALID,0,
2013-06-29, 00:22:04,VALID,918.288,VALID,0,VALID,93.9052,VALID,0,VALID,20.5609,VALID,322,VALID,0,
2013-06-29, 00:23:04,VALID,918.325,VALID,0,VALID,93.8976,VALID,0,VALID,20.5414,VALID,323,VALID,0,
2013-06-29, 00:24:04,VALID,918.303,VALID,0,VALID,93.7604,VALID,0,VALID,20.4634,VALID,323,VALID,0,
2013-06-29, 00:25:04,VALID,918.287,VALID,0,VALID,93.7985,VALID,0,VALID,20.4454,VALID,331,VALID,0,
2013-06-29, 00:26:04,VALID,918.343,VALID,0,VALID,93.8595,VALID,0,VALID,20.3854,VALID,336,VALID,0,
2013-06-29, 00:27:04,VALID,918.331,VALID,0,VALID,93.89,VALID,0,VALID,20.3659,VALID,336,VALID,0,
2013-06-29, 00:28:04,VALID,918.326,VALID,0,VALID,93.7528,VALID,0,VALID,20.3269,VALID,336,VALID,0,
2013-06-29, 00:29:04,VALID,918.3,VALID,0,VALID,93.7985,VALID,0,VALID,20.2879,VALID,336,VALID,0,
2013-06-29, 00:30:04,VALID,918.28,VALID,0,VALID,93.8366,VALID,0,VALID,20.2684,VALID,336,VALID,0,
2013-06-29, 00:31:04,VALID,918.258,VALID,0,VALID,93.8747,VALID,0,VALID,20.2879,VALID,336,VALID,0,
2013-06-29, 00:32:04,VALID,918.233,VALID,0,VALID,93.8747,VALID,0,VALID,20.2684,VALID,336,VALID,0,
2013-06-29, 00:33:04,VALID,918.217,VALID,0,VALID,93.9434,VALID,0,VALID,20.2894,VALID,336,VALID,0,
2013-06-29, 00:34:04,VALID,918.226,VALID,0,VALID,94.012,VALID,0,VALID,20.2894,VALID,336,VALID,0,
2013-06-29, 00:35:04,VALID,918.192,VALID,0,VALID,94.0653,VALID,0,VALID,20.2879,VALID,336,VALID,0,
2013-06-29, 00:36:04,VALID,918.145,VALID,0,VALID,93.8366,VALID,0.107441,VALID,20.2684,VALID,336,VALID,0,
2013-06-29, 00:37:04,VALID,918.128,VALID,0,VALID,93.4783,VALID,0.107441,VALID,20.1693,VALID,336,VALID,0,
2013-06-29, 00:38:04,VALID,918.142,VALID,0,VALID,93.3792,VALID,0.107441,VALID,20.0913,VALID,336,VALID,0,
2013-06-29, 00:39:04,VALID,918.145,VALID,0,VALID,93.4478,VALID,0,VALID,20.0718,VALID,336,VALID,0,
2013-06-29, 00:40:04,VALID,918.119,VALID,0,VALID,93.6994,VALID,0.107441,VALID,20.0328,VALID,336,VALID,0,
2013-06-29, 00:41:04,VALID,918.139,VALID,0,VALID,93.7985,VALID,0.107441,VALID,20.0538,VALID,336,VALID,0,
2013-06-29, 00:42:04,VALID,918.131,VALID,0,VALID,93.8824,VALID,0,VALID,19.9938,VALID,336,VALID,0,
2013-06-29, 00:43:04,VALID,918.131,VALID,0,VALID,94.0425,VALID,0.107441,VALID,19.9938,VALID,336,VALID,0,
2013-06-29, 00:44:04,VALID,918.104,VALID,0,VALID,94.0577,VALID,0,VALID,19.9353,VALID,336,VALID,0,
2013-06-29, 00:45:04,VALID,918.096,VALID,0,VALID,94.1949,VALID,0,VALID,19.9563,VALID,336,VALID,0,
2013-06-29, 00:46:04,VALID,918.078,VALID,0,VALID,94.3626,VALID,0.107441,VALID,19.9353,VALID,336,VALID,0,
2013-06-29, 00:47:04,VALID,918.135,VALID,0,VALID,94.2712,VALID,0.107441,VALID,19.9158,VALID,336,VALID,0,
2013-06-29, 00:48:04,VALID,918.129,VALID,0,VALID,94.3398,VALID,0.107441,VALID,19.8963,VALID,336,VALID,0,
2013-06-29, 00:49:04,VALID,918.139,VALID,0,VALID,94.4389,VALID,0.107441,VALID,19.8768,VALID,336,VALID,0,
2013-06-29, 00:50:04,VALID,918.158,VALID,0,VALID,94.5456,VALID,0.107441,VALID,19.8768,VALID,336,VALID,0,
2013-06-29, 00:51:04,VALID,918.174,VALID,0,VALID,94.5609,VALID,0.107441,VALID,19.8573,VALID,336,VALID,0,
2013-06-29, 00:52:04,VALID,918.156,VALID,0,VALID,94.6523,VALID,0,VALID,19.8978,VALID,336,VALID,0,
2013-06-29, 00:53:04,VALID,918.145,VALID,0,VALID,94.7819,VALID,0.107441,VALID,19.8963,VALID,336,VALID,0,
2013-06-29, 00:54:04,VALID,918.142,VALID,0,VALID,94.6523,VALID,0.107441,VALID,19.8768,VALID,336,VALID,0,
2013-06-29, 00:55:04,VALID,918.133,VALID,0,VALID,94.5304,VALID,0.107441,VALID,19.8183,VALID,336,VALID,0,
2013-06-29, 00:56:04,VALID,918.163,VALID,0,VALID,94.5304,VALID,0,VALID,19.7988,VALID,336,VALID,0,
2013-06-29, 00:57:04,VALID,918.122,VALID,0,VALID,94.5685,VALID,0,VALID,19.7988,VALID,336,VALID,0,
2013-06-29, 00:58:04,VALID,918.154,VALID,0,VALID,94.6066,VALID,0,VALID,19.8198,VALID,336,VALID,0,
2013-06-29, 00:59:04,VALID,918.119,VALID,0,VALID,94.6676,VALID,0,VALID,19.8393,VALID,336,VALID,0,
2013-06-29, 01:00:04,VALID,918.132,VALID,0,VALID,94.7591,VALID,0,VALID,19.8378,VALID,336,VALID,0,
2013-06-29, 01:01:04,VALID,918.135,VALID,0,VALID,94.7057,VALID,0.107441,VALID,19.8393,VALID,336,VALID,0,
2013-06-29, 01:02:04,VALID,918.158,VALID,0,VALID,94.6752,VALID,0.107441,VALID,19.8183,VALID,336,VALID,0,
2013-06-29, 01:03:04,VALID,918.14,VALID,0,VALID,94.5685,VALID,0.107441,VALID,19.7988,VALID,336,VALID,0,
2013-06-29, 01:04:04,VALID,918.153,VALID,0,VALID,94.5151,VALID,0.107441,VALID,19.8003,VALID,336,VALID,0,
2013-06-29, 01:05:04,VALID,918.154,VALID,0,VALID,94.5304,VALID,0,VALID,19.7808,VALID,336,VALID,0,
2013-06-29, 01:06:04,VALID,918.144,VALID,0,VALID,94.5151,VALID,0,VALID,19.8003,VALID,336,VALID,0,
2013-06-29, 01:07:04,VALID,918.142,VALID,0,VALID,94.4846,VALID,0,VALID,19.7808,VALID,336,VALID,0,
2013-06-29, 01:08:04,VALID,918.119,VALID,0,VALID,94.5075,VALID,0,VALID,19.7808,VALID,336,VALID,0,
2013-06-29, 01:09:04,VALID,918.141,VALID,0,VALID,94.5304,VALID,0,VALID,19.7613,VALID,336,VALID,0,
2013-06-29, 01:10:04,VALID,918.121,VALID,0,VALID,94.4922,VALID,0,VALID,19.7613,VALID,336,VALID,0,
2013-06-29, 01:11:04,VALID,918.112,VALID,0,VALID,94.5227,VALID,0,VALID,19.7418,VALID,336,VALID,0,
2013-06-29, 01:12:04,VALID,918.103,VALID,0,VALID,94.5227,VALID,0,VALID,19.7238,VALID,336,VALID,0,
2013-06-29, 01:13:04,VALID,918.081,VALID,0,VALID,94.8353,VALID,0,VALID,19.7613,VALID,336,VALID,0,
2013-06-29, 01:14:04,VALID,918.097,VALID,0,VALID,95.0106,VALID,0,VALID,19.8003,VALID,336,VALID,0,
2013-06-29, 01:15:04,VALID,918.065,VALID,0,VALID,95.0945,VALID,0,VALID,19.8198,VALID,336,VALID,0,
2013-06-29, 01:16:04,VALID,918.055,VALID,0,VALID,95.0869,VALID,0.107441,VALID,19.7793,VALID,336,VALID,0,
2013-06-29, 01:17:04,VALID,918.042,VALID,0,VALID,95.0564,VALID,0,VALID,19.7823,VALID,336,VALID,0,
2013-06-29, 01:18:04,VALID,918.043,VALID,0,VALID,95.003,VALID,0.107441,VALID,19.7418,VALID,336,VALID,0,
2013-06-29, 01:19:04,VALID,918.044,VALID,0,VALID,94.942,VALID,0,VALID,19.7223,VALID,336,VALID,0,
2013-06-29, 01:20:04,VALID,918.053,VALID,0,VALID,94.8887,VALID,0,VALID,19.6833,VALID,336,VALID,0,
2013-06-29, 01:21:04,VALID,918.052,VALID,0,VALID,94.881,VALID,0,VALID,19.6653,VALID,336,VALID,0,
2013-06-29, 01:22:04,VALID,918.038,VALID,0,VALID,94.8734,VALID,0,VALID,19.6458,VALID,336,VALID,0,
2013-06-29, 01:23:04,VALID,918.046,VALID,0,VALID,94.9192,VALID,0,VALID,19.6263,VALID,336,VALID,0,
2013-06-29, 01:24:04,VALID,918.032,VALID,0,VALID,95.0411,VALID,0,VALID,19.6653,VALID,336,VALID,0,
2013-06-29, 01:25:04,VALID,918.027,VALID,0,VALID,95.0564,VALID,0,VALID,19.6653,VALID,336,VALID,0,
2013-06-29, 01:26:04,VALID,918.002,VALID,0,VALID,95.0792,VALID,0,VALID,19.6458,VALID,336,VALID,0,
2013-06-29, 01:27:04,VALID,917.964,VALID,0,VALID,95.0945,VALID,0,VALID,19.6458,VALID,336,VALID,0,
2013-06-29, 01:28:04,VALID,917.964,VALID,0,VALID,95.1174,VALID,0,VALID,19.6458,VALID,336,VALID,0,
2013-06-29, 01:29:04,VALID,917.95,VALID,0,VALID,95.2546,VALID,0,VALID,19.6653,VALID,336,VALID,0,
2013-06-29, 01:30:04,VALID,917.902,VALID,0,VALID,95.2622,VALID,0,VALID,19.6848,VALID,336,VALID,0,
2013-06-29, 01:31:04,VALID,917.87,VALID,0,VALID,95.2698,VALID,0,VALID,19.6848,VALID,336,VALID,0,
2013-06-29, 01:32:04,VALID,917.863,VALID,0,VALID,95.247,VALID,0,VALID,19.6653,VALID,336,VALID,0,
2013-06-29, 01:33:04,VALID,917.807,VALID,0,VALID,95.2317,VALID,0,VALID,19.6653,VALID,336,VALID,0,
2013-06-29, 01:34:04,VALID,917.801,VALID,0,VALID,95.0869,VALID,0,VALID,19.6068,VALID,336,VALID,0,
2013-06-29, 01:35:04,VALID,917.776,VALID,0,VALID,94.8734,VALID,0,VALID,19.5288,VALID,336,VALID,0,
2013-06-29, 01:36:04,VALID,917.786,VALID,0,VALID,95.003,VALID,0,VALID,19.5078,VALID,336,VALID,0,
2013-06-29, 01:37:04,VALID,917.759,VALID,0,VALID,95.1555,VALID,0.107441,VALID,19.5288,VALID,336,VALID,0,
2013-06-29, 01:38:04,VALID,917.756,VALID,0,VALID,95.2851,VALID,0,VALID,19.5273,VALID,336,VALID,0,
2013-06-29, 01:39:04,VALID,917.729,VALID,0,VALID,95.3232,VALID,0,VALID,19.5288,VALID,12,VALID,0,
2013-06-29, 01:40:04,VALID,917.751,VALID,0,VALID,95.3461,VALID,0,VALID,19.4883,VALID,12,VALID,0,
2013-06-29, 01:41:04,VALID,917.723,VALID,0,VALID,95.4375,VALID,0,VALID,19.5078,VALID,12,VALID,0,
2013-06-29, 01:42:04,VALID,917.731,VALID,0,VALID,95.4071,VALID,0,VALID,19.4493,VALID,12,VALID,0,
2013-06-29, 01:43:04,VALID,917.718,VALID,0,VALID,95.4223,VALID,0,VALID,19.4298,VALID,12,VALID,0,
2013-06-29, 01:44:04,VALID,917.704,VALID,0,VALID,95.4909,VALID,0,VALID,19.4493,VALID,12,VALID,0,
2013-06-29, 01:45:04,VALID,917.724,VALID,0,VALID,95.529,VALID,0,VALID,19.4298,VALID,12,VALID,0,
2013-06-29, 01:46:04,VALID,917.726,VALID,0,VALID,95.5671,VALID,0,VALID,19.4298,VALID,12,VALID,0,
2013-06-29, 01:47:04,VALID,917.727,VALID,0,VALID,95.6129,VALID,0,VALID,19.4103,VALID,12,VALID,0,
2013-06-29, 01:48:04,VALID,917.694,VALID,0,VALID,95.651,VALID,0,VALID,19.4103,VALID,12,VALID,0,
2013-06-29, 01:49:04,VALID,917.664,VALID,0,VALID,95.6891,VALID,0,VALID,19.3908,VALID,12,VALID,0,
2013-06-29, 01:50:04,VALID,917.664,VALID,0,VALID,95.7272,VALID,0,VALID,19.3713,VALID,12,VALID,0,
2013-06-29, 01:51:04,VALID,917.63,VALID,0,VALID,95.7501,VALID,0.107441,VALID,19.3713,VALID,12,VALID,0,
2013-06-29, 01:52:04,VALID,917.612,VALID,0,VALID,95.7958,VALID,0,VALID,19.3323,VALID,12,VALID,0,
2013-06-29, 01:53:04,VALID,917.582,VALID,0,VALID,95.8187,VALID,0,VALID,19.3323,VALID,12,VALID,0,
2013-06-29, 01:54:04,VALID,917.55,VALID,0,VALID,95.8492,VALID,0,VALID,19.2933,VALID,12,VALID,0,
2013-06-29, 01:55:04,VALID,917.536,VALID,0,VALID,95.8721,VALID,0,VALID,19.2933,VALID,12,VALID,0,
2013-06-29, 01:56:04,VALID,917.509,VALID,0,VALID,95.9254,VALID,0,VALID,19.2933,VALID,12,VALID,0,
2013-06-29, 01:57:04,VALID,917.52,VALID,0,VALID,95.9483,VALID,0,VALID,19.2933,VALID,12,VALID,0,
2013-06-29, 01:58:04,VALID,917.503,VALID,0,VALID,95.9941,VALID,0.107441,VALID,19.2933,VALID,12,VALID,0,
2013-06-29, 01:59:04,VALID,917.462,VALID,0,VALID,96.0398,VALID,0,VALID,19.2738,VALID,12,VALID,0,
2013-06-29, 02:00:04,VALID,917.425,VALID,0,VALID,96.0703,VALID,0,VALID,19.2738,VALID,12,VALID,0,
2013-06-29, 02:01:04,VALID,917.456,VALID,0,VALID,96.0932,VALID,0.107441,VALID,19.2723,VALID,12,VALID,0,
2013-06-29, 02:02:04,VALID,917.432,VALID,0,VALID,96.1236,VALID,0,VALID,19.2933,VALID,12,VALID,0,
2013-06-29, 02:03:04,VALID,917.449,VALID,0,VALID,96.1694,VALID,0,VALID,19.2738,VALID,12,VALID,0,
2013-06-29, 02:04:04,VALID,917.42,VALID,0,VALID,96.2075,VALID,0,VALID,19.3128,VALID,12,VALID,0,
2013-06-29, 02:05:04,VALID,917.406,VALID,0,VALID,96.2837,VALID,0,VALID,19.3713,VALID,105,VALID,0,
2013-06-29, 02:06:04,VALID,917.414,VALID,0,VALID,96.2837,VALID,0,VALID,19.3503,VALID,105,VALID,0,
2013-06-29, 02:07:04,VALID,917.436,VALID,0,VALID,96.299,VALID,0.107441,VALID,19.3503,VALID,105,VALID,0,
2013-06-29, 02:08:04,VALID,917.408,VALID,0,VALID,96.299,VALID,0,VALID,19.3323,VALID,105,VALID,0,
2013-06-29, 02:09:04,VALID,917.406,VALID,0,VALID,96.2837,VALID,0.107441,VALID,19.3128,VALID,82,VALID,0,
2013-06-29, 02:10:04,VALID,917.382,VALID,0,VALID,96.2761,VALID,0,VALID,19.2933,VALID,82,VALID,0,
2013-06-29, 02:11:04,VALID,917.41,VALID,0,VALID,96.3142,VALID,0,VALID,19.3113,VALID,83,VALID,0,
2013-06-29, 02:12:04,VALID,917.405,VALID,0,VALID,96.3219,VALID,0.107441,VALID,19.3518,VALID,83,VALID,0,
2013-06-29, 02:13:04,VALID,917.419,VALID,0,VALID,96.3676,VALID,0,VALID,19.3518,VALID,83,VALID,0,
2013-06-29, 02:14:04,VALID,917.396,VALID,0,VALID,96.3752,VALID,0,VALID,19.3908,VALID,104,VALID,0,
2013-06-29, 02:15:04,VALID,917.406,VALID,0,VALID,96.3905,VALID,0,VALID,19.3518,VALID,104,VALID,0,
2013-06-29, 02:16:04,VALID,917.401,VALID,0,VALID,96.3676,VALID,0,VALID,19.3518,VALID,104,VALID,0,
2013-06-29, 02:17:04,VALID,917.421,VALID,0,VALID,96.3752,VALID,0,VALID,19.3128,VALID,104,VALID,0,
2013-06-29, 02:18:04,VALID,917.403,VALID,0,VALID,96.3905,VALID,0,VALID,19.3128,VALID,104,VALID,0,
2013-06-29, 02:19:04,VALID,917.375,VALID,0,VALID,96.3752,VALID,0,VALID,19.2933,VALID,104,VALID,0,
2013-06-29, 02:20:04,VALID,917.381,VALID,0,VALID,96.3829,VALID,0,VALID,19.2738,VALID,104,VALID,0,
2013-06-29, 02:21:04,VALID,917.367,VALID,0,VALID,96.3829,VALID,0,VALID,19.2543,VALID,104,VALID,0,
2013-06-29, 02:22:04,VALID,917.356,VALID,0,VALID,96.3981,VALID,0,VALID,19.2543,VALID,104,VALID,0,
2013-06-29, 02:23:04,VALID,917.377,VALID,0,VALID,96.4057,VALID,0,VALID,19.2543,VALID,104,VALID,0,
2013-06-29, 02:24:04,VALID,917.366,VALID,0,VALID,96.421,VALID,0,VALID,19.2348,VALID,104,VALID,0,
2013-06-29, 02:25:04,VALID,917.372,VALID,0,VALID,96.4438,VALID,0,VALID,19.2543,VALID,104,VALID,0,
2013-06-29, 02:26:04,VALID,917.379,VALID,0,VALID,96.4438,VALID,0,VALID,19.2543,VALID,104,VALID,0,
2013-06-29, 02:27:04,VALID,917.371,VALID,0,VALID,96.4667,VALID,0,VALID,19.2348,VALID,104,VALID,0,
2013-06-29, 02:28:04,VALID,917.388,VALID,0,VALID,96.4438,VALID,0,VALID,19.1958,VALID,104,VALID,0,
2013-06-29, 02:29:04,VALID,917.394,VALID,0,VALID,96.4515,VALID,0.107441,VALID,19.1763,VALID,128,VALID,0,
2013-06-29, 02:30:04,VALID,917.375,VALID,0,VALID,96.4515,VALID,0,VALID,19.1763,VALID,141,VALID,0,
2013-06-29, 02:31:04,VALID,917.385,VALID,0,VALID,96.4515,VALID,0,VALID,19.1778,VALID,141,VALID,0,
2013-06-29, 02:32:04,VALID,917.417,VALID,0,VALID,96.4819,VALID,0,VALID,19.1958,VALID,132,VALID,0,
2013-06-29, 02:33:04,VALID,917.405,VALID,0,VALID,96.4896,VALID,0,VALID,19.2168,VALID,112,VALID,0,
2013-06-29, 02:34:04,VALID,917.404,VALID,0,VALID,96.4972,VALID,0,VALID,19.2153,VALID,114,VALID,0,
2013-06-29, 02:35:04,VALID,917.363,VALID,0,VALID,96.5506,VALID,0.107441,VALID,19.2348,VALID,114,VALID,0,
2013-06-29, 02:36:04,VALID,917.37,VALID,0,VALID,96.5658,VALID,0,VALID,19.2543,VALID,113,VALID,0,
2013-06-29, 02:37:04,VALID,917.376,VALID,0,VALID,96.5658,VALID,0.107441,VALID,19.2738,VALID,114,VALID,0,
2013-06-29, 02:38:04,VALID,917.327,VALID,0,VALID,96.5811,VALID,0,VALID,19.2738,VALID,127,VALID,0,
2013-06-29, 02:39:04,VALID,917.335,VALID,0,VALID,96.5963,VALID,0,VALID,19.2543,VALID,115,VALID,0,
2013-06-29, 02:40:04,VALID,917.355,VALID,0,VALID,96.6039,VALID,0.107441,VALID,19.2528,VALID,130,VALID,0,
2013-06-29, 02:41:04,VALID,917.347,VALID,0,VALID,96.6115,VALID,0.107441,VALID,19.2738,VALID,132,VALID,0,
2013-06-29, 02:42:04,VALID,917.357,VALID,0,VALID,96.6039,VALID,0,VALID,19.2933,VALID,133,VALID,0,
2013-06-29, 02:43:04,VALID,917.325,VALID,0,VALID,96.6115,VALID,0,VALID,19.2723,VALID,131,VALID,0,
2013-06-29, 02:44:04,VALID,917.384,VALID,0,VALID,96.6039,VALID,0.107441,VALID,19.2738,VALID,130,VALID,0,
2013-06-29, 02:45:04,VALID,917.363,VALID,0,VALID,96.6039,VALID,0,VALID,19.3128,VALID,137,VALID,0,
2013-06-29, 02:46:04,VALID,917.369,VALID,0,VALID,96.6039,VALID,0,VALID,19.2933,VALID,129,VALID,0,
2013-06-29, 02:47:04,VALID,917.396,VALID,0,VALID,96.5963,VALID,0.107441,VALID,19.2933,VALID,131,VALID,0,
2013-06-29, 02:48:04,VALID,917.413,VALID,0,VALID,96.6039,VALID,0,VALID,19.2933,VALID,126,VALID,0,
2013-06-29, 02:49:04,VALID,917.427,VALID,0,VALID,96.6192,VALID,0.107441,VALID,19.3128,VALID,126,VALID,0,
2013-06-29, 02:50:04,VALID,917.425,VALID,0,VALID,96.6115,VALID,0,VALID,19.3323,VALID,126,VALID,0,
2013-06-29, 02:51:04,VALID,917.396,VALID,0,VALID,96.6039,VALID,0.107441,VALID,19.3323,VALID,112,VALID,0,
2013-06-29, 02:52:04,VALID,917.403,VALID,0,VALID,96.5963,VALID,0,VALID,19.3518,VALID,110,VALID,0,
2013-06-29, 02:53:04,VALID,917.337,VALID,0,VALID,96.6115,VALID,0,VALID,19.3323,VALID,112,VALID,0,
2013-06-29, 02:54:04,VALID,917.325,VALID,0,VALID,96.6115,VALID,0,VALID,19.3533,VALID,120,VALID,0,
2013-06-29, 02:55:04,VALID,917.319,VALID,0,VALID,96.5734,VALID,0,VALID,19.3128,VALID,119,VALID,0,
2013-06-29, 02:56:04,VALID,917.294,VALID,0,VALID,96.5734,VALID,0.107441,VALID,19.3128,VALID,140,VALID,0,
2013-06-29, 02:57:04,VALID,917.311,VALID,0,VALID,96.5734,VALID,0,VALID,19.3323,VALID,126,VALID,0,
2013-06-29, 02:58:04,VALID,917.282,VALID,0,VALID,96.5811,VALID,0.107441,VALID,19.3323,VALID,125,VALID,0,
2013-06-29, 02:59:04,VALID,917.277,VALID,0,VALID,96.5353,VALID,0.107441,VALID,19.3113,VALID,135,VALID,0,
2013-06-29, 03:00:04,VALID,917.28,VALID,0,VALID,96.5734,VALID,0,VALID,19.3533,VALID,137,VALID,0,
2013-06-29, 03:01:04,VALID,917.309,VALID,0,VALID,96.5582,VALID,0,VALID,19.3128,VALID,137,VALID,0,
2013-06-29, 03:02:04,VALID,917.288,VALID,0,VALID,96.5124,VALID,0.107441,VALID,19.2738,VALID,137,VALID,0,
2013-06-29, 03:03:04,VALID,917.308,VALID,0,VALID,96.4896,VALID,0.107441,VALID,19.2543,VALID,137,VALID,0,
2013-06-29, 03:04:04,VALID,917.282,VALID,0,VALID,96.4743,VALID,0,VALID,19.2543,VALID,126,VALID,0,
2013-06-29, 03:05:04,VALID,917.263,VALID,0,VALID,96.4591,VALID,0,VALID,19.2738,VALID,126,VALID,0,
2013-06-29, 03:06:04,VALID,917.249,VALID,0,VALID,96.4362,VALID,0,VALID,19.2543,VALID,104,VALID,0,
2013-06-29, 03:07:04,VALID,917.271,VALID,0,VALID,96.421,VALID,0,VALID,19.2153,VALID,99,VALID,0,
2013-06-29, 03:08:04,VALID,917.299,VALID,0,VALID,96.421,VALID,0,VALID,19.2348,VALID,105,VALID,0,
2013-06-29, 03:09:04,VALID,917.283,VALID,0,VALID,96.4286,VALID,0,VALID,19.2738,VALID,109,VALID,0,
2013-06-29, 03:10:04,VALID,917.297,VALID,0,VALID,96.4362,VALID,0,VALID,19.2738,VALID,105,VALID,0,
2013-06-29, 03:11:04,VALID,917.296,VALID,0,VALID,96.4133,VALID,0.107441,VALID,19.2933,VALID,113,VALID,0,
2013-06-29, 03:12:04,VALID,917.298,VALID,0,VALID,96.4133,VALID,0.107441,VALID,19.2933,VALID,115,VALID,0,
2013-06-29, 03:13:04,VALID,917.272,VALID,0,VALID,96.3981,VALID,0,VALID,19.3533,VALID,119,VALID,0,
2013-06-29, 03:14:04,VALID,917.275,VALID,0,VALID,96.36,VALID,0,VALID,19.3128,VALID,120,VALID,0,
2013-06-29, 03:15:04,VALID,917.259,VALID,0,VALID,96.3295,VALID,0.107441,VALID,19.3323,VALID,100,VALID,0,
2013-06-29, 03:16:04,VALID,917.216,VALID,0,VALID,96.2837,VALID,0.107441,VALID,19.3323,VALID,106,VALID,0,
2013-06-29, 03:17:04,VALID,917.21,VALID,0,VALID,96.2304,VALID,0,VALID,19.3518,VALID,100,VALID,0,
2013-06-29, 03:18:04,VALID,917.249,VALID,0,VALID,96.1923,VALID,0,VALID,19.3713,VALID,90,VALID,0,
2013-06-29, 03:19:04,VALID,917.215,VALID,0,VALID,96.1389,VALID,0,VALID,19.3908,VALID,113,VALID,0,
2013-06-29, 03:20:04,VALID,917.248,VALID,0,VALID,96.055,VALID,0,VALID,19.4103,VALID,100,VALID,0,
2013-06-29, 03:21:04,VALID,917.286,VALID,0,VALID,95.9636,VALID,0,VALID,19.4103,VALID,100,VALID,0,
2013-06-29, 03:22:04,VALID,917.277,VALID,0,VALID,95.8797,VALID,0,VALID,19.4298,VALID,103,VALID,0,
2013-06-29, 03:23:04,VALID,917.306,VALID,0,VALID,95.7349,VALID,0.107441,VALID,19.3908,VALID,104,VALID,0,
2013-06-29, 03:24:04,VALID,917.294,VALID,0,VALID,95.6662,VALID,0.107441,VALID,19.4103,VALID,111,VALID,0,
2013-06-29, 03:25:04,VALID,917.285,VALID,0,VALID,95.5367,VALID,0,VALID,19.3908,VALID,114,VALID,0,
2013-06-29, 03:26:04,VALID,917.287,VALID,0,VALID,95.4528,VALID,0,VALID,19.3713,VALID,118,VALID,0,
2013-06-29, 03:27:04,VALID,917.316,VALID,0,VALID,95.3842,VALID,0.107441,VALID,19.3518,VALID,118,VALID,0,
2013-06-29, 03:28:04,VALID,917.29,VALID,0,VALID,95.3079,VALID,0,VALID,19.3323,VALID,115,VALID,0,
2013-06-29, 03:29:04,VALID,917.32,VALID,0,VALID,95.2851,VALID,0.107441,VALID,19.3323,VALID,114,VALID,0,
2013-06-29, 03:30:04,VALID,917.34,VALID,0,VALID,95.247,VALID,0.107441,VALID,19.3323,VALID,113,VALID,0,
2013-06-29, 03:31:04,VALID,917.372,VALID,0,VALID,95.2241,VALID,0.107441,VALID,19.3338,VALID,113,VALID,0,
2013-06-29, 03:32:04,VALID,917.37,VALID,0,VALID,95.2241,VALID,0.107441,VALID,19.3128,VALID,113,VALID,0,
2013-06-29, 03:33:04,VALID,917.402,VALID,0,VALID,95.2012,VALID,0.107441,VALID,19.3143,VALID,102,VALID,0,
2013-06-29, 03:34:04,VALID,917.406,VALID,0,VALID,95.2012,VALID,0,VALID,19.2933,VALID,102,VALID,0,
2013-06-29, 03:35:04,VALID,917.404,VALID,0,VALID,95.1783,VALID,0,VALID,19.2528,VALID,98,VALID,0,
2013-06-29, 03:36:04,VALID,917.387,VALID,0,VALID,95.1479,VALID,0,VALID,19.2348,VALID,98,VALID,0,
2013-06-29, 03:37:04,VALID,917.398,VALID,0,VALID,95.1707,VALID,0,VALID,19.2348,VALID,103,VALID,0,
2013-06-29, 03:38:04,VALID,917.409,VALID,0,VALID,95.1707,VALID,0,VALID,19.2348,VALID,104,VALID,0,
2013-06-29, 03:39:04,VALID,917.415,VALID,0,VALID,95.1783,VALID,0,VALID,19.2153,VALID,108,VALID,0,
2013-06-29, 03:40:04,VALID,917.434,VALID,0,VALID,95.2775,VALID,0.107441,VALID,19.2153,VALID,114,VALID,0,
2013-06-29, 03:41:04,VALID,917.409,VALID,0,VALID,95.2317,VALID,0.107441,VALID,19.2153,VALID,99,VALID,0,
2013-06-29, 03:42:04,VALID,917.475,VALID,0,VALID,95.2012,VALID,0,VALID,19.1763,VALID,96,VALID,0,
2013-06-29, 03:43:04,VALID,917.445,VALID,0,VALID,95.1479,VALID,0,VALID,19.1763,VALID,92,VALID,0,
2013-06-29, 03:44:04,VALID,917.46,VALID,0,VALID,95.1936,VALID,0.107441,VALID,19.1763,VALID,92,VALID,0,
2013-06-29, 03:45:04,VALID,917.465,VALID,0,VALID,95.2393,VALID,0,VALID,19.1373,VALID,92,VALID,0,
2013-06-29, 03:46:04,VALID,917.449,VALID,0,VALID,95.3613,VALID,0.107441,VALID,19.1568,VALID,93,VALID,0,
2013-06-29, 03:47:04,VALID,917.449,VALID,0,VALID,95.3461,VALID,0.107441,VALID,19.1568,VALID,101,VALID,0,
2013-06-29, 03:48:04,VALID,917.42,VALID,0,VALID,95.4071,VALID,0.107441,VALID,19.1568,VALID,101,VALID,0,
2013-06-29, 03:49:04,VALID,917.396,VALID,0,VALID,95.4375,VALID,0.107441,VALID,19.1763,VALID,118,VALID,0,
2013-06-29, 03:50:04,VALID,917.384,VALID,0,VALID,95.4604,VALID,0,VALID,19.1763,VALID,118,VALID,0,
2013-06-29, 03:51:04,VALID,917.366,VALID,0,VALID,95.4833,VALID,0,VALID,19.2168,VALID,139,VALID,0,
2013-06-29, 03:52:04,VALID,917.38,VALID,0,VALID,95.5138,VALID,0,VALID,19.1958,VALID,138,VALID,0,
2013-06-29, 03:53:04,VALID,917.325,VALID,0,VALID,95.4833,VALID,0,VALID,19.1958,VALID,136,VALID,0,
2013-06-29, 03:54:04,VALID,917.299,VALID,0,VALID,95.4757,VALID,0,VALID,19.1763,VALID,135,VALID,0,
2013-06-29, 03:55:04,VALID,917.313,VALID,0,VALID,95.468,VALID,0,VALID,19.1763,VALID,135,VALID,0,
2013-06-29, 03:56:04,VALID,917.328,VALID,0,VALID,95.4604,VALID,0,VALID,19.1763,VALID,135,VALID,0,